Regional Weather Roundup
Issued by NWS

Home | Current Version | Previous Version | Graphics & Text | Print | Product List | Glossary On
Versions: 1 2 3 4 5 6 7 8 9 10 11 12 13 14 15 16 17 18 19 20 21 22 23 24 25 26 27 28 29 30 31 32 33 34 35 36 37 38 39 40 41 42 43 44 45 46 47 48 49 50
000
ASUS43 KLSX 311907
RWRMO

WEATHER SUMMARY FOR MISSOURI
NATIONAL WEATHER SERVICE SPRINGFIELD MO
200 PM CDT THU JUL 31 2014

NOTE: "FAIR" INDICATES FEW OR NO CLOUDS BELOW 12,000 FEET WITH NO
       SIGNIFICANT WEATHER AND/OR OBSTRUCTIONS TO VISIBILITY.
       CURRENT SKY AND/OR WEATHER CONDITIONS ARE NOT AVAILABLE FOR
       CHILLICOTHE AND FARMINGTON.

MOZ001>031-035>038-043-044-053-054-312000-
...NORTHERN AND WESTERN MISSOURI...

CITY           SKY/WX    TMP DP  RH WIND       PRES   REMARKS
KANSAS CTY INT PTSUNNY   80  56  43 VRB3      30.10F
KANSAS C DTWN  MOSUNNY   83  55  38 VRB5      30.09F
LEE`S SUMMIT   MOSUNNY   82  55  39 NE3       30.11F
ST JOSEPH      PTSUNNY   80  58  46 NW6       30.09F
CHILLICOTHE      N/A     82  55  39 S7        30.10F
KIRKSVILLE     SUNNY     82  57  42 S6        30.11F

$$
MOZ066>068-077>081-088>096-101>105-312000-
...SOUTHWEST MISSOURI...

CITY           SKY/WX    TMP DP  RH WIND       PRES   REMARKS
SPRINGFIELD    CLOUDY    78  60  53 CALM      30.09F
JOPLIN         PTSUNNY   80  64  58 NE6       30.09F

$$
MOZ032>034-039>042-045>050-055>058-069>072-312000-
...CENTRAL MISSOURI...

CITY           SKY/WX    TMP DP  RH WIND       PRES   REMARKS
COLUMBIA       PTSUNNY   83  55  38 CALM      30.09F
JEFFERSON CITY PTSUNNY   83  55  38 CALM      30.08S
ROLLA          PTSUNNY   81  51  35 E6        30.08F
SEDALIA        PTSUNNY   81  56  42 NE3       30.10F
WHITEMAN AFB   MOSUNNY   81  44  26 N6        30.09F
OSAGE BEACH      N/A     82  57  42 NE5       30.08F

$$
MOZ051-052-059>065-312000-
...EAST CENTRAL MISSOURI...

CITY           SKY/WX    TMP DP  RH WIND       PRES   REMARKS
ST LOUIS INTL  PTSUNNY   85  58  39 NW6       30.08F
SPIRIT OF STL  PTSUNNY   85  56  37 NE6       30.06F
ST CHARLES     SUNNY     83  54  36 VRB5      30.07F

$$
MOZ072>076-082>087-097>100-106>115-312000-
...SOUTH CENTRAL AND SOUTHEAST MISSOURI...

CITY           SKY/WX    TMP DP  RH WIND       PRES   REMARKS
CAPE GIRARDEAU PTSUNNY   77  64  64 SW7       30.09F
FARMINGTON     MOSUNNY   81  57  44 SE6       30.11F
POPLAR BLUFF   CLOUDY    75  64  68 VRB5      30.09F
WEST PLAINS    PTSUNNY   75  62  64 S6        30.12S

$$


USA.gov is the U.S. government's official web portal to all federal, state and local government web resources and services.